Location: Mat�lon
(46.2791°N, 7.1028°E)
Time: 23:35:02
(UTC+00:00)

NOSS 2-2 (C) - Visible Passes

Search period start: 23 January 2021 00:00
Search period end: 02 February 2021 00:00
Orbit: 465 x 1743 km, 63.3° (Epoch: 22 January)

Date Brightness Start Highest point End Pass type
(mag) Time Alt. Az. Time Alt. Az. Time Alt. Az.
23 Jan 5.9 17:31:32 10° N 17:33:38 13° NNE 17:35:26 11° NE visible
23 Jan 5.8 19:20:50 10° NNW 19:22:50 23° N 19:22:50 23° N visible
24 Jan 5.4 18:35:44 10° NNW 18:39:08 25° NNE 18:39:08 25° NNE visible
24 Jan 6.6 20:25:36 10° NW 20:26:32 16° NW 20:26:32 16° NW visible
25 Jan 5.6 17:50:43 10° NNW 17:54:16 19° NNE 17:55:30 18° NE visible
25 Jan 5.6 19:40:20 10° NW 19:42:55 31° NNW 19:42:55 31° NNW visible
26 Jan 5.8 17:05:44 10° N 17:08:24 14° NNE 17:11:27 10° NE visible
26 Jan 4.8 18:55:09 10° NNW 18:59:23 43° NNE 18:59:23 43° NNE visible
26 Jan 6.7 20:45:33 10° NW 20:46:48 17° WNW 20:46:48 17° WNW visible
27 Jan 5.1 18:10:02 10° NNW 18:14:37 31° NE 18:15:57 29° ENE visible
27 Jan 5.5 20:00:03 10° NW 20:03:23 40° WNW 20:03:23 40° WNW visible
28 Jan 5.4 17:24:58 10° NNW 17:28:56 23° NE 17:32:40 14° ENE visible
28 Jan 4.3 19:14:43 10° NW 19:20:07 83° NE 19:20:07 83° NE visible
28 Jan 6.9 21:06:06 10° WNW 21:07:34 16° W 21:07:34 16° W visible
29 Jan 4.5 18:29:29 10° NNW 18:34:44 56° NE 18:37:03 38° ESE visible
29 Jan 5.9 20:20:09 10° WNW 20:24:31 33° WSW 20:24:31 33° WSW visible
30 Jan 4.9 17:44:20 10° NNW 17:49:12 38° NE 17:54:16 15° ESE visible
30 Jan 5.1 19:34:32 10° NW 19:40:06 53° WSW 19:41:46 44° SSW visible
31 Jan 5.2 16:59:15 10° NNW 17:03:34 27° NE 17:09:06 10° E visible
31 Jan 4.6 18:49:08 10° NW 18:54:40 80° SW 18:59:27 24° SSE visible
31 Jan 6.9 20:41:08 10° WNW 20:45:13 18° WSW 20:47:00 16° SW visible
01 Feb 4.4 18:03:51 10° NW 18:09:14 70° NE 18:16:45 10° SE visible
01 Feb 6.3 19:54:51 10° WNW 19:59:56 28° WSW 20:05:31 13° SSW visible
